www.pogodaiklimat.ru

Погода и климат >> Архив погоды >> Кувейт >> Nuwasib


ПОГОДА в Nuwasib

  • Прогноз погоды в Nuwasib
  • Монитор погоды в Nuwasib
  • Климат города

АРХИВ ПОГОДЫ в Nuwasib

Время (UTC), дата Ветер
(напр.,м/с)
 
Видим.   Явления Облачность Т
(С)
Тd
(С)
f
(%)
Тe
(С)
Тes
(С)
Комфортность P
(гПа)
Po
(гПа)
Тmin
(С)
Tmax
(С)
R
(мм)
R24
(мм)
S
(см)
18 12.11 СЗ 2-3
{7}
н/о н/о +21.3 +18.2 82 +26 +26 душно 1019.1 1019.0
21 12.11 СЗ 2-4
{5}
н/о н/о +19.5 +16.4 82 +22 +22 комфорт 1018.4 1018.0 +19.5 +25.1
00 13.11 С 3-6
{6}
н/о н/о +18.7 +15.8 83 +20 +20 1017.8 1018.0
03 13.11 СЗ 3-5
{7}
н/о н/о +17.6 +15.5 87 +18 +18 1018.6 1019.0
06 13.11 СЗ 3-6
{7}
н/о н/о +21.7 +15.9 70 +25 +25 комфорт 1019.4 1019.0
09 13.11 С 4-7
{7}
н/о н/о +24.3 +14.7 55 +27 +27 жарко 1017.9 1018.0
12 13.11 С 4-7
{8}
н/о н/о +23.7 +13.0 51 +26 +26 жарко 1016.8 1017.0
15 13.11 С 2-3
{7}
н/о н/о +22.2 +14.6 62 +26 +26 душно 1016.8 1017.0
18 13.11 З 2-2
{7}
н/о н/о +20.1 +16.9 82 +24 +24 комфорт 1016.4 1016.0
21 13.11 СЗ 2-3
{3}
н/о н/о +20.7 +15.5 72 +25 +25 комфорт 1015.2 1015.0 +17.5 +25.4
00 14.11 З 5-10
{10}
н/о н/о +19.2 +16.7 85 +21 +21 комфорт 1017.1 1017.0
03 14.11 Ю 4-5
{9}
н/о н/о +17.8 +17.8 100 +18 +18 1014.6 1015.0
06 14.11 В 1-2
{9}
н/о н/о +18.4 +18.4 100 +20 +20 1014.7 1015.0
09 14.11 СЗ 2-4
{5}
н/о н/о +19.3 1013.1 1013.3
12 14.11 В 5-8
{8}
н/о н/о +22.2 +21.5 96 +29 +29 очень
душно
1011.9 1012.0
15 14.11 В 5-7
{9}
н/о н/о +22.0 +19.4 85 +27 +27 душно 1013.3 1013.0
18 14.11 В 7-12
{12}
н/о н/о +22.5 +18.4 78 +28 +28 душно 1012.9 1013.0
21 14.11 С 3-6
{23}
н/о н/о +18.7 +18.7 100 1012.1 1012.0 +17.4 +22.7
00 15.11 В 9-14
{23}
н/о н/о +22.1 +19.6 86 +28 +28 душно 1012.2 1012.0
03 15.11 В 6-10
{13}
н/о н/о +22.6 +20.2 86 +29 +29 очень
душно
1014.5 1015.0
06 15.11 В 8-13
{14}
н/о н/о +23.1 +20.0 83 +30 +30 очень
душно
1015.9 1016.0
09 15.11 В 9-13
{14}
н/о н/о +24.1 +19.9 77 +29 +29 душно 1013.8 1014.0
12 15.11 В 10-14
{16}
н/о н/о +24.2 +19.9 77 +30 +30 очень
душно
1012.1 1012.0
15 15.11 В 7-10
{14}
н/о н/о +24.9 +20.5 77 +31 +31 очень
душно
1012.6 1013.0
18 15.11 СВ 5-8
{14}
н/о н/о +25.2 +21.5 80 +32 +32 очень
душно
1012.7 1013.0
21 15.11 СЗ 3-5
{9}
н/о н/о +24.0 +22.6 92 +31 +31 очень
душно
1012.5 1013.0 +18.6 +25.7
00 16.11 СЗ 3-5
{11}
н/о н/о +21.0 +18.1 84 +26 +26 душно 1012.1 1012.0
03 16.11 С 3-4
{6}
н/о н/о +21.6 +19.4 87 +27 +27 душно 1014.2 1014.0
06 16.11 С 1-2
{7}
н/о н/о +21.9 +18.3 80 +27 +27 душно 1017.6 1018.0
09 16.11 СЗ 3-6
{7}
н/о н/о +26.4 +18.3 61 +31 +31 душно 1017.1 1017.0
12 16.11 С 3-5
{7}
н/о н/о +26.2 +18.0 61 +31 +31 очень
душно
1017.4 1017.0
15 16.11 С 2-3
{5}
н/о н/о +23.5 +18.7 74 +28 +28 душно 1018.5 1019.0
18 16.11 СЗ 3-5
{5}
н/о н/о +21.5 +18.5 83 +26 +26 душно 1020.3 1020.0
21 16.11 СЗ 3-7
{7}
н/о н/о +19.1 +16.8 87 +21 +21 комфорт 1020.0 1020.0 +19.1 +27.0
00 17.11 СЗ 3-7
{9}
н/о н/о +17.8 +15.6 87 +18 +18 1020.4 1020.0
03 17.11 С 3-6
{8}
н/о н/о +16.9 +15.8 93 +17 +17 1021.8 1022.0
06 17.11 С 5-9
{9}
н/о н/о +19.8 +16.2 80 +22 +22 комфорт 1022.9 1023.0
09 17.11 С 5-8
{10}
н/о н/о +22.4 +16.2 68 +27 +27 душно 1021.3 1021.0
12 17.11 С 4-7
{10}
н/о н/о +24.1 +15.8 60 +27 +27 жарко 1020.3 1020.0
15 17.11 С 3-6
{7}
н/о н/о +21.4 +16.0 71 +25 +25 комфорт 1021.2 1021.0
18 17.11 СЗ 3-5
{7}
н/о н/о +19.6 +16.5 82 +22 +22 комфорт 1021.4 1021.0
21 17.11 СЗ 3-5
{6}
н/о н/о +17.2 +15.2 88 +17 +17 1021.1 1021.0 +16.7 +24.5
00 18.11 СЗ 4-8
{8}
н/о н/о +16.2 +15.3 94 +16 +16 1020.8 1021.0
03 18.11 СЗ 3-5
{8}
н/о н/о +15.3 +14.7 96 +15 +15 1021.2 1021.0
06 18.11 СЗ 4-8
{8}
н/о н/о +19.9 +14.1 69 +22 +22 комфорт 1022.2 1022.0
09 18.11 С 5-9
{11}
н/о н/о +24.6 +10.4 41 +26 +26 жарко 1019.7 1020.0
12 18.11 С 5-9
{11}
н/о н/о +25.3 +8.3 34 +26 +26 жарко 1018.7 1019.0
15 18.11 С 2-4
{9}
н/о н/о +21.4 +11.9 55 +24 +24 комфорт 1019.0 1019.0
18 18.11 СЗ 2-5
{9}
н/о н/о +18.9 +13.2 69 +20 +20 1019.8 1020.0
21 18.11 СЗ 3-5
{6}
н/о н/о +17.5 +14.1 80 +18 +18 1019.6 1020.0 +15.3 +26.2
00 19.11 СЗ 2-5
{6}
н/о н/о +16.4 +15.1 92 +16 +16 1019.7 1020.0
06 19.11 СЗ 3-6
{7}
н/о н/о +19.6 +12.8 65 +21 +21 комфорт 1021.2 1021.0
09 19.11 С 5-8
{9}
н/о н/о +22.0 +7.7 40 +23 +23 комфорт 1019.6 1020.0
12 19.11 С 5-10
{10}
н/о н/о +22.4 +8.5 41 +24 +24 комфорт 1019.1 1019.0
15 19.11 С 3-6
{9}
н/о н/о +20.4 +10.3 52 +22 +22 комфорт 1019.4 1019.0

 

Местоположение метеостанции Nuwasib (Кувейт): широта 28.50 долгота 48.75 высота над уровнем моря 2 м.

В архиве по умолчанию представлена погода в Nuwasib за последнюю неделю. Архивные данные за месяц целиком и за предыдущие месяцы, начиная с января 2011 года, Вы можете получить, выбрав интересующий диапазон дат из раскрывающегося списка и нажав кнопку "Ввод!".


*Определитесь, кто Вы:
робот инопланетянин человек

Внимание! Время в таблицах - всемирное. Для получения местного времени необходимо прибавить поправку, которая в Nuwasib равна 3 ч.

Смотрите также архив погоды в соседних городах и на ближайших метеорологических станциях:

Погода в Umm-Al-Maradim (Кувейт) (22 км)
Погода в Juluiah Port (Кувейт) (62 км)
Погода в Al-Wafra (Кувейт) (68 км)
Погода в Kuwait (Кувейт) (110 км)
Погода в Al-Shuaiba (Кувейт) (114 км)
Погода в Kuwait City (Кувейт) (115 км)
Погода в Failaka Island (Кувейт) (117 км)
Погода в Experimental Farm (Кувейт) (118 км)
Погода в Sulaibiya (Кувейт) (132 км)
Погода в Minagish (Кувейт) (135 км)

Пояснения к столбцам:

Ветер - указаны скорость ветра в м/с - средняя за 10 мин, порывы в срок и между сроками (в фигурных скобках) и направление, откуда дует ветер: С - северный, СВ - северо-восточный, В - восточный, ЮВ - юго-восточный, Ю - южный, ЮЗ - юго-западный, З - западный, СЗ - северо-западный.
Видимость - горизонтальная дальность видимости в метрах или километрах. При видимости от 1 до 10 км при отсутствии осадков обычно наблюдается дымка, при ухудшении видимости до 1 км и менее - туман. В сухую погоду видимость может ухудшаться дымом, пылью или мглою.
Явления - указаны атмосферные явления, наблюдавшиеся в срок или в последний час перед сроком; фигурными скобками обозначены явления, наблюдавшиеся между сроками (за 1-3 часа до срока); квадратными скобками обозначены град или гололедные отложения с указанием их диаметра в мм.
Облачность - указаны через наклонную черту общая и нижняя облачность в баллах и высота нижней границы облаков в метрах; квадратными скобками обозначены формы облаков: Ci - перистые, Cs - перисто-слоистые, Cc - перисто-кучевые, Ac - высококучевые, As - высокослоистые, Sc - слоисто-кучевые, Ns - слоисто-дождевые, Cu - кучевые, Cb - кучево-дождевые. Подробнее классификацию облаков см. в Атласе облаков (PDF).
T - Температура воздуха - температура, измеренная на высоте 2 м над землей.
Td - Температура точки росы - температура, при понижении до которой содержащийся в воздухе водяной пар достигнет насыщения.
f - Относительная влажность воздуха - влажноcть воздуха, измеренная на высоте 2 м над землей.
Te - Эффективная температура - температура, которую ощущает одетый по сезону человек в тени. Характеристика душности погоды. При расчете учитывается влияние влажности воздуха и скорости ветра на теплоощущения человека.
Tes - Эффективная температура на солнце - температура, которую ощущает человек, с поправкой на солнечный нагрев. Характеристика знойности погоды. Зависит от высоты солнца над горизонтом, облачности и скорости ветра. Ночью, в пасмурную погоду, а также при ветре 12 м/с и более поправка равна нулю.
P - Атмосферное давление - приведенное к уровню моря атмосферное давление.
Po - Атмосферное давление - измеренное на уровне метеостанции атмосферное давление.
Tmin - Минимальная температура - минимум температуры воздуха на высоте 2 м над землей.
Tmax - Максимальная температура - максимум температуры воздуха на высоте 2 м над землей.
R - Количество осадков - Количество выпавших осадков за период времени, мм. При наведении курсора мыши на число - период времени, за который выпало указанное количество осадков.
R24 - Количество осадков - Количество выпавших осадков за 24 часа, мм.
S - Снежный покров - Высота снежного покрова, см. При наведении курсора мыши на число - состояние снежного покрова и степень покрытия местности в баллах.